FW4805 Andros Island GR current weather conditions

sailwx.info

Wind from 256 at 1 knots gusting 3

Air temperature 11.7° C
Dewpoint 8.3° C

Last reported at 2019-Dec-08 21:05 UTC.
Time now 2019-Dec-08 21:53 UTC

Location: N 37°50' E 024°56'.
View on Google Maps.

See reports from other nearby stations

  
Tides and Currents Weather Stations Pressure Air Temp Water Temp Dewpoint Dewpoint Depression Visibility Wind Speed Wind Dir Waves Ship Positions
date/time (UTC)wind fromknots sea level pressurealtimeterstation pressurevisibilityair tempwater tempwave heightnotes
2019-Dec-08 21:05 256 1 gusting 3 11.7
2019-Dec-08 21:00 237 0 gusting 3 12.2
2019-Dec-08 20:55 259 0 gusting 3 12.2
2019-Dec-08 20:50 282 0 gusting 1 12.8
2019-Dec-08 20:45 020 0 gusting 3 12.8
2019-Dec-08 20:40 255 0 gusting 3 12.8
2019-Dec-08 20:35 217 0 gusting 3 13.3
2019-Dec-08 20:30 076 1 gusting 4 13.9
2019-Dec-08 20:25 019 0 gusting 4 14.4
2019-Dec-08 20:20 055 1 gusting 4 14.4
2019-Dec-08 20:15 104 1 gusting 4 14.4
2019-Dec-08 20:10 061 1 gusting 4 14.4
2019-Dec-08 20:05 038 1 gusting 5 14.4
2019-Dec-08 20:00 027 1 gusting 5 13.9
2019-Dec-08 19:55 068 1 gusting 5 13.9
2019-Dec-08 19:50 057 1 gusting 4 13.9
2019-Dec-08 19:45 073 2 gusting 5 13.9
2019-Dec-08 19:40 044 3 gusting 6 13.9
2019-Dec-08 19:35 038 3 gusting 8 13.3
2019-Dec-08 19:30 080 2 gusting 8 12.8
2019-Dec-08 19:25 319 0 gusting 8 11.7
2019-Dec-08 19:20 279 11.1
2019-Dec-08 19:15 274 11.1
2019-Dec-08 19:10 264 11.1
2019-Dec-08 19:05 270 0 gusting 1 11.1
2019-Dec-08 19:00 277 0 gusting 1 11.1
2019-Dec-08 18:55 260 0 gusting 1 11.1
2019-Dec-08 18:50 256 0 gusting 1 11.1
2019-Dec-08 18:45 265 0 gusting 1 11.1
2019-Dec-08 18:40 258 0 gusting 1 11.7
2019-Dec-08 18:35 259 0 gusting 1 11.7
2019-Dec-08 18:30 269 0 gusting 1 11.7
2019-Dec-08 18:25 273 0 gusting 1 11.7
2019-Dec-08 18:20 273 0 gusting 1 11.7
2019-Dec-08 18:15 265 0 gusting 3 12.2
2019-Dec-08 18:10 266 0 gusting 3 12.2
2019-Dec-08 18:05 267 0 gusting 2 12.2
2019-Dec-08 18:00 263 1 gusting 3 12.8
2019-Dec-08 17:55 258 0 gusting 3 13.3
2019-Dec-08 17:50 242 0 gusting 1 13.3
2019-Dec-08 17:45 239 0 gusting 2 13.9
2019-Dec-08 17:40 003 0 gusting 2 14.4
2019-Dec-08 17:35 026 2 gusting 6 14.4
2019-Dec-08 17:30 040 4 gusting 9 14.4
2019-Dec-08 17:25 026 5 gusting 9 14.4
2019-Dec-08 17:20 023 4 gusting 6 14.4
2019-Dec-08 17:15 052 4 gusting 8 14.4
2019-Dec-08 17:10 054 4 gusting 8 14.4
2019-Dec-08 17:05 054 3 gusting 7 14.4
2019-Dec-08 17:00 049 3 gusting 9 14.4
2019-Dec-08 16:55 056 3 gusting 9 14.4
2019-Dec-08 16:50 060 3 gusting 6 14.4
2019-Dec-08 16:45 077 2 gusting 6 14.4
2019-Dec-08 16:40 086 1 gusting 4 14.4
2019-Dec-08 16:35 077 1 gusting 6 13.9
2019-Dec-08 16:30 068 2 gusting 6 13.9
2019-Dec-08 16:25 045 1 gusting 5 13.9
2019-Dec-08 16:20 037 1 gusting 5 13.9
2019-Dec-08 16:15 047 1 gusting 5 13.9
2019-Dec-08 16:10 067 1 gusting 3 13.9
2019-Dec-08 16:05 041 1 gusting 6 13.9
2019-Dec-08 16:00 029 2 gusting 6 13.9
2019-Dec-08 15:55 041 1 gusting 6 13.9
2019-Dec-08 15:50 052 1 gusting 5 13.9
2019-Dec-08 15:45 045 2 gusting 7 13.9
2019-Dec-08 15:40 072 2 gusting 7 13.9
2019-Dec-08 15:35 094 2 gusting 6 13.9
2019-Dec-08 15:30 089 2 gusting 5 13.3
2019-Dec-08 15:25 351 1 gusting 5 13.3
2019-Dec-08 15:20 310 2 gusting 5 13.3
2019-Dec-08 15:15 276 1 gusting 5 13.3
2019-Dec-08 15:10 012 1 gusting 6 13.3
2019-Dec-08 15:05 064 4 gusting 9 13.9
2019-Dec-08 15:00 096 3 gusting 9 13.9
2019-Dec-08 14:55 303 2 gusting 4 14.4
2019-Dec-08 14:50 256 2 gusting 5 14.4
2019-Dec-08 14:45 248 2 gusting 6 14.4
2019-Dec-08 14:40 356 2 gusting 6 14.4
2019-Dec-08 14:35 021 1 gusting 5 15.0
2019-Dec-08 14:30 055 2 gusting 6 15.0
2019-Dec-08 14:25 074 4 gusting 9 15.6
2019-Dec-08 14:20 078 5 gusting 9 15.6
2019-Dec-08 14:15 067 5 gusting 9 15.6
2019-Dec-08 14:10 051 6 gusting 13 15.6
2019-Dec-08 14:05 053 6 gusting 13 15.6
2019-Dec-08 14:00 046 5 gusting 9 15.6
2019-Dec-08 13:55 040 4 gusting 9 16.1
2019-Dec-08 13:50 050 4 gusting 7 16.1
2019-Dec-08 13:45 054 5 gusting 13 16.1
2019-Dec-08 13:40 062 6 gusting 13 16.1
2019-Dec-08 13:35 038 3 gusting 9 16.1
2019-Dec-08 13:30 010 3 gusting 7 16.1
2019-Dec-08 13:25 312 4 gusting 7 16.1
2019-Dec-08 13:20 285 4 gusting 13 16.7
2019-Dec-08 13:15 333 5 gusting 13 16.7
2019-Dec-08 13:10 329 6 gusting 12 16.1
2019-Dec-08 13:05 318 5 gusting 12 16.1
2019-Dec-08 13:00 319 3 gusting 12 16.1
2019-Dec-08 12:55 323 3 gusting 9 16.1
2019-Dec-08 12:50 027 4 gusting 9 16.1
2019-Dec-08 12:45 094 5 gusting 11 16.1
2019-Dec-08 12:40 096 5 gusting 11 16.1
2019-Dec-08 12:35 065 5 gusting 11 16.1
2019-Dec-08 12:30 055 5 gusting 10 16.7
2019-Dec-08 12:25 020 5 gusting 10 16.7
2019-Dec-08 12:20 321 5 gusting 13 16.7
2019-Dec-08 12:15 049 4 gusting 13 16.7
2019-Dec-08 12:10 054 4 gusting 13 16.7
2019-Dec-08 12:05 041 4 gusting 13 16.7
2019-Dec-08 12:00 012 4 gusting 11 16.7
2019-Dec-08 11:55 030 6 gusting 11 16.1
2019-Dec-08 11:50 048 5 gusting 9 16.1
2019-Dec-08 11:45 024 3 gusting 9 16.1
2019-Dec-08 11:40 006 4 gusting 7 16.1
2019-Dec-08 11:35 349 5 gusting 8 16.1
2019-Dec-08 11:30 340 5 gusting 9 16.1
2019-Dec-08 11:25 313 4 gusting 9 16.1
2019-Dec-08 11:20 333 3 gusting 9 16.7
2019-Dec-08 11:15 070 2 gusting 6 16.7
2019-Dec-08 11:10 049 3 gusting 6 16.7
2019-Dec-08 11:05 056 4 gusting 9 16.7
2019-Dec-08 11:00 039 4 gusting 9 16.7
2019-Dec-08 10:55 335 3 gusting 7 17.2
2019-Dec-08 10:50 335 5 gusting 9 17.8
2019-Dec-08 10:45 352 5 gusting 10 17.8
2019-Dec-08 10:40 349 4 gusting 10 17.8
2019-Dec-08 10:35 330 5 gusting 12 17.8
2019-Dec-08 10:30 316 6 gusting 12 17.2
2019-Dec-08 10:25 290 5 gusting 11 17.8
2019-Dec-08 10:20 030 5 gusting 11 17.8
2019-Dec-08 10:15 043 4 gusting 9 17.8
2019-Dec-08 10:10 028 4 gusting 9 17.8
2019-Dec-08 10:05 007 5 gusting 13 17.8
2019-Dec-08 10:00 031 5 gusting 13 17.8
2019-Dec-08 09:55 064 4 gusting 11 17.8
2019-Dec-08 09:50 047 4 gusting 11 17.8
2019-Dec-08 09:45 348 4 gusting 9 17.8
2019-Dec-08 09:40 318 4 gusting 7 17.8
2019-Dec-08 09:35 006 4 gusting 9 17.8
2019-Dec-08 09:30 021 5 gusting 12 17.8
2019-Dec-08 09:25 334 4 gusting 12 17.8
2019-Dec-08 09:20 333 4 gusting 8 17.8
2019-Dec-08 09:15 352 5 gusting 8 17.8
2019-Dec-08 09:10 333 5 gusting 11 17.2
2019-Dec-08 09:05 353 5 gusting 11 17.2
2019-Dec-08 09:00 009 4 gusting 9 17.2
2019-Dec-08 08:55 005 4 gusting 10 17.2
2019-Dec-08 08:50 310 5 gusting 10 17.2
2019-Dec-08 08:45 307 4 gusting 10 17.2
2019-Dec-08 08:40 343 4 gusting 11 17.2
2019-Dec-08 08:35 315 5 gusting 13 17.2
2019-Dec-08 08:30 270 5 gusting 13 17.2
2019-Dec-08 08:25 090 5 gusting 12 17.2
2019-Dec-08 08:20 014 6 gusting 15 16.7
2019-Dec-08 08:15 320 6 gusting 15 16.7
2019-Dec-08 08:10 306 6 gusting 13 16.7
2019-Dec-08 08:05 021 6 gusting 14 16.7
2019-Dec-08 08:00 021 6 gusting 14 16.7
2019-Dec-08 07:55 019 6 gusting 14 16.7
2019-Dec-08 07:50 311 6 gusting 14 16.7
2019-Dec-08 07:45 313 6 gusting 18 16.1
2019-Dec-08 07:40 316 6 gusting 18 16.1
2019-Dec-08 07:35 332 6 gusting 18 16.7
2019-Dec-08 07:30 217 6 gusting 16 16.1
2019-Dec-08 07:25 215 6 gusting 14 16.1
2019-Dec-08 07:20 285 6 gusting 13 16.1
2019-Dec-08 07:15 316 7 gusting 14 16.1
2019-Dec-08 07:10 311 7 gusting 14 15.6
2019-Dec-08 07:05 352 5 gusting 12 15.6
2019-Dec-08 07:00 354 4 gusting 12 15.6
2019-Dec-08 06:55 284 4 gusting 7 15.6
2019-Dec-08 06:50 080 5 gusting 13 15.6
2019-Dec-08 06:45 323 6 gusting 13 15.6
2019-Dec-08 06:40 308 6 gusting 10 15.6
2019-Dec-08 06:35 060 6 gusting 13 15.6
2019-Dec-08 06:30 094 6 gusting 14 15.6
2019-Dec-08 06:25 099 6 gusting 14 15.6
2019-Dec-08 06:20 051 6 gusting 13 15.6
2019-Dec-08 06:15 031 6 gusting 13 15.6
2019-Dec-08 06:10 081 4 gusting 13 15.6
2019-Dec-08 06:05 109 2 gusting 6 15.0
2019-Dec-08 06:00 160 1 gusting 4 15.0
2019-Dec-08 05:55 143 2 gusting 5 15.0
2019-Dec-08 05:50 087 3 gusting 6 15.0
2019-Dec-08 05:45 049 3 gusting 12 15.0
2019-Dec-08 05:40 068 4 gusting 12 15.0
2019-Dec-08 05:35 069 4 gusting 11 15.0
2019-Dec-08 05:30 102 2 gusting 6 15.0
2019-Dec-08 05:25 223 0 gusting 4 15.0
2019-Dec-08 05:20 283 0 gusting 5 15.6
2019-Dec-08 05:15 088 3 gusting 9 15.6
2019-Dec-08 05:10 091 3 gusting 9 15.0
2019-Dec-08 05:05 061 3 gusting 6 15.0
2019-Dec-08 05:00 063 3 gusting 6 15.0
2019-Dec-08 04:55 049 2 gusting 6 15.0
2019-Dec-08 04:50 045 2 gusting 6 15.0
2019-Dec-08 04:45 091 1 gusting 5 15.0
2019-Dec-08 04:40 088 1 gusting 5 15.0
2019-Dec-08 04:35 080 2 gusting 5 15.0
2019-Dec-08 04:30 065 2 gusting 5 15.0
2019-Dec-08 04:25 048 3 gusting 6 15.0
2019-Dec-08 04:20 043 2 gusting 6 15.0
2019-Dec-08 04:15 050 1 gusting 6 15.0
2019-Dec-08 04:10 032 2 gusting 6 15.0
2019-Dec-08 04:05 031 2 gusting 6 15.0
2019-Dec-08 04:00 064 3 gusting 7 15.0
2019-Dec-08 03:55 067 2 gusting 7 14.4
2019-Dec-08 03:50 337 0 gusting 1 14.4
2019-Dec-08 03:45 030 1 gusting 6 14.4
2019-Dec-08 03:40 316 2 gusting 6 14.4
2019-Dec-08 03:35 264 1 gusting 3 14.4
2019-Dec-08 03:30 259 1 gusting 2 13.9
2019-Dec-08 03:25 239 0 gusting 2 13.3
2019-Dec-08 03:20 218 13.3
2019-Dec-08 03:15 231 13.3
2019-Dec-08 03:10 314 13.3
2019-Dec-08 03:05 13.3
2019-Dec-08 03:00 13.9
2019-Dec-08 02:55 207 13.9
2019-Dec-08 02:50 150 0 gusting 3 14.4
2019-Dec-08 02:45 082 1 gusting 5 14.4
2019-Dec-08 02:40 073 1 gusting 5 14.4
2019-Dec-08 02:35 048 0 gusting 5 14.4
2019-Dec-08 02:30 270 14.4
2019-Dec-08 02:25 031 0 gusting 3 15.0
2019-Dec-08 02:20 029 1 gusting 4 15.0
2019-Dec-08 02:15 301 1 gusting 4 15.0
2019-Dec-08 02:10 324 3 gusting 6 15.0
2019-Dec-08 02:05 352 3 gusting 6 15.0
2019-Dec-08 02:00 152 1 gusting 6 15.0
2019-Dec-08 01:55 045 1 gusting 5 15.0
2019-Dec-08 01:50 009 2 gusting 5 15.6
2019-Dec-08 01:45 340 2 gusting 5 15.6
2019-Dec-08 01:40 013 2 gusting 5 15.6
2019-Dec-08 01:35 017 2 gusting 6 15.6
2019-Dec-08 01:30 045 2 gusting 6 15.6
2019-Dec-08 01:25 028 3 gusting 6 15.6
2019-Dec-08 01:20 026 3 gusting 6 15.6
2019-Dec-08 01:15 038 2 gusting 6 15.6
2019-Dec-08 01:10 312 2 gusting 4 15.6
2019-Dec-08 01:05 038 2 gusting 6 15.6
2019-Dec-08 01:00 045 2 gusting 6 15.6
2019-Dec-08 00:55 307 3 gusting 12 15.6
2019-Dec-08 00:50 291 3 gusting 12 15.6
2019-Dec-08 00:45 278 2 gusting 10 15.6
2019-Dec-08 00:40 242 2 gusting 7 15.0
2019-Dec-08 00:35 206 3 gusting 7 15.6
2019-Dec-08 00:30 075 3 gusting 7 15.6
2019-Dec-08 00:25 121 2 gusting 6 15.6
2019-Dec-08 00:20 149 1 gusting 3 15.0
2019-Dec-08 00:15 135 1 gusting 4 15.0
2019-Dec-08 00:10 016 2 gusting 6 15.6
2019-Dec-08 00:05 320 3 gusting 6 15.6
2019-Dec-08 00:00 318 2 gusting 6 15.6
2019-Dec-07 23:55 310 1 gusting 3 15.0
2019-Dec-07 23:50 318 2 gusting 6 15.0
2019-Dec-07 23:45 323 2 gusting 6 15.0
2019-Dec-07 23:40 005 1 gusting 4 14.4
2019-Dec-07 23:35 336 2 gusting 6 14.4
2019-Dec-07 23:30 316 1 gusting 6 13.9
2019-Dec-07 23:25 327 0 gusting 6 12.8
2019-Dec-07 23:20 297 12.8
2019-Dec-07 23:15 12.2
2019-Dec-07 23:10 284 12.2
2019-Dec-07 23:05 257 0 gusting 2 12.2
2019-Dec-07 23:00 257 0 gusting 2 12.2
2019-Dec-07 22:54 241 0 gusting 1 12.2
2019-Dec-07 22:49 229 0 gusting 1 11.7
2019-Dec-07 22:44 258 0 gusting 1 11.7
2019-Dec-07 22:39 274 11.7
2019-Dec-07 22:34 267 0 gusting 2 11.7
2019-Dec-07 22:29 259 0 gusting 2 11.7
2019-Dec-07 22:24 283 0 gusting 1 11.7
2019-Dec-07 22:19 284 0 gusting 1 11.7
2019-Dec-07 22:14 270 0 gusting 1 11.7
2019-Dec-07 22:09 281 0 gusting 1 11.7
2019-Dec-07 22:04 289 0 gusting 1 11.7
2019-Dec-07 21:59 286 11.7
2019-Dec-07 21:54 231 0 gusting 1 11.7
2019-Dec-07 21:49 231 0 gusting 2 11.7
2019-Dec-07 21:44 268 0 gusting 2 11.7
2019-Dec-07 21:39 273 1 gusting 2 11.7
2019-Dec-07 21:34 276 1 gusting 2 11.7
2019-Dec-07 21:29 278 0 gusting 2 11.7
2019-Dec-07 21:24 261 0 gusting 2 11.7
2019-Dec-07 21:19 252 0 gusting 1 11.7
2019-Dec-07 21:14 261 0 gusting 1 11.7
2019-Dec-07 21:09 266 0 gusting 1 11.7
2019-Dec-07 21:04 270 11.7
2019-Dec-07 20:59 270 11.7
2019-Dec-07 20:54 278 11.7
2019-Dec-07 20:49 283 11.7
2019-Dec-07 20:44 228 12.2
2019-Dec-07 20:39 236 0 gusting 2 12.2
2019-Dec-07 20:34 234 0 gusting 2 12.2
2019-Dec-07 20:29 227 1 gusting 3 12.2
2019-Dec-07 20:24 236 1 gusting 3 12.2
2019-Dec-07 20:19 251 0 gusting 3 12.2
2019-Dec-07 20:14 240 0 gusting 1 12.2
2019-Dec-07 20:09 238 0 gusting 1 12.2
2019-Dec-07 20:04 248 12.2
2019-Dec-07 19:59 225 12.2
2019-Dec-07 19:54 12.2
2019-Dec-07 19:49 270 12.2
2019-Dec-07 19:44 270 12.2
2019-Dec-07 19:39 270 12.2
2019-Dec-07 19:34 270 12.2
2019-Dec-07 19:29 235 12.2
2019-Dec-07 19:24 251 12.2
2019-Dec-07 19:19 270 12.2
2019-Dec-07 19:14 272 0 gusting 1 12.2
2019-Dec-07 19:09 266 0 gusting 1 12.8
2019-Dec-07 19:04 257 12.8
2019-Dec-07 18:59 265 12.8
2019-Dec-07 18:54 255 12.8
2019-Dec-07 18:49 245 12.8
2019-Dec-07 18:44 254 0 gusting 1 12.8
2019-Dec-07 18:39 288 0 gusting 2 12.8
2019-Dec-07 18:34 316 0 gusting 2 12.8
2019-Dec-07 18:29 12.8
2019-Dec-07 18:24 12.8
2019-Dec-07 18:19 314 12.8
2019-Dec-07 18:14 245 12.8
2019-Dec-07 18:09 241 12.8
2019-Dec-07 18:04 270 13.3
2019-Dec-07 17:59 270 13.3
2019-Dec-07 17:54 270 12.8
2019-Dec-07 17:49 270 13.3
2019-Dec-07 17:44 286 0 gusting 1 13.3
2019-Dec-07 17:39 302 0 gusting 1 13.3
2019-Dec-07 17:34 310 0 gusting 1 13.3
2019-Dec-07 17:29 298 13.3
2019-Dec-07 17:24 129 13.3
2019-Dec-07 17:19 183 0 gusting 2 13.3
2019-Dec-07 17:14 181 0 gusting 2 13.3
2019-Dec-07 17:09 264 0 gusting 3 13.3
2019-Dec-07 17:04 252 1 gusting 3 13.3
2019-Dec-07 16:59 243 1 gusting 3 13.3
2019-Dec-07 16:54 252 1 gusting 3 13.3
2019-Dec-07 16:49 256 1 gusting 3 13.3
2019-Dec-07 16:44 254 1 gusting 3 13.3
2019-Dec-07 16:39 251 1 gusting 3 13.3
2019-Dec-07 16:34 258 1 gusting 3 13.3
2019-Dec-07 16:29 263 1 gusting 2 13.3
2019-Dec-07 16:24 258 0 gusting 2 13.3
2019-Dec-07 16:19 252 0 gusting 1 13.3
2019-Dec-07 16:14 238 0 gusting 2 13.3
2019-Dec-07 16:09 229 0 gusting 2 13.9
2019-Dec-07 16:04 251 0 gusting 1 13.9
2019-Dec-07 15:59 340 13.9
2019-Dec-07 15:54 034 14.4
2019-Dec-07 15:49 087 14.4
2019-Dec-07 15:44 155 14.4
2019-Dec-07 15:39 252 0 gusting 3 15.0
2019-Dec-07 15:34 261 1 gusting 3 15.0
2019-Dec-07 15:29 263 1 gusting 3 15.0
2019-Dec-07 15:24 270 1 gusting 3 15.0
2019-Dec-07 15:19 272 1 gusting 3 15.0
2019-Dec-07 15:14 256 1 gusting 3 15.0
2019-Dec-07 15:09 248 1 gusting 3 15.0
2019-Dec-07 15:04 252 1 gusting 2 15.0
2019-Dec-07 14:59 245 1 gusting 3 15.0
2019-Dec-07 14:54 246 0 gusting 3 15.6
2019-Dec-07 14:49 247 0 gusting 3 15.6
2019-Dec-07 14:44 239 0 gusting 3 15.6
2019-Dec-07 14:39 238 15.6
2019-Dec-07 14:34 246 0 gusting 3 15.6
2019-Dec-07 14:29 276 0 gusting 3 15.6
2019-Dec-07 14:24 345 0 gusting 2 15.6
2019-Dec-07 14:19 107 16.1
2019-Dec-07 14:14 274 0 gusting 4 16.1
2019-Dec-07 14:09 265 1 gusting 6 16.1
2019-Dec-07 14:04 262 3 gusting 6 16.1
2019-Dec-07 13:59 267 4 gusting 7 16.1
2019-Dec-07 13:54 257 4 gusting 7 16.1
2019-Dec-07 13:49 248 3 gusting 6 16.1
2019-Dec-07 13:44 247 3 gusting 6 16.1
2019-Dec-07 13:39 257 3 gusting 6 16.7
2019-Dec-07 13:34 263 4 gusting 7 16.7
2019-Dec-07 13:29 260 5 gusting 7 16.7
2019-Dec-07 13:24 268 4 gusting 6 16.7
2019-Dec-07 13:19 272 4 gusting 6 16.7
2019-Dec-07 13:14 273 4 gusting 6 16.7
2019-Dec-07 13:09 258 5 gusting 9 17.2
2019-Dec-07 13:04 252 4 gusting 9 17.2
2019-Dec-07 12:59 255 4 gusting 8 17.2
2019-Dec-07 12:54 254 3 gusting 8 17.8
2019-Dec-07 12:49 230 4 gusting 7 17.8
2019-Dec-07 12:44 209 4 gusting 7 17.8
2019-Dec-07 12:39 225 2 gusting 6 17.8
2019-Dec-07 12:34 254 1 gusting 4 17.2
2019-Dec-07 12:29 273 1 gusting 3 16.7
2019-Dec-07 12:24 279 1 gusting 3 16.7
2019-Dec-07 12:19 268 1 gusting 3 16.1
2019-Dec-07 12:14 256 2 gusting 4 16.1
2019-Dec-07 12:09 266 2 gusting 4 16.1
2019-Dec-07 12:04 293 1 gusting 5 16.1
2019-Dec-07 11:59 275 2 gusting 5 16.1
2019-Dec-07 11:54 275 1 gusting 5 16.1
2019-Dec-07 11:49 270 2 gusting 5 16.1
2019-Dec-07 11:44 266 2 gusting 6 16.1
2019-Dec-07 11:39 273 2 gusting 6 16.1
2019-Dec-07 11:34 271 2 gusting 5 16.1
2019-Dec-07 11:29 256 3 gusting 6 16.1
2019-Dec-07 11:24 256 3 gusting 6 16.1
2019-Dec-07 11:19 257 3 gusting 6 16.1
2019-Dec-07 11:14 257 2 gusting 6 16.1
2019-Dec-07 11:09 282 2 gusting 4 16.1
2019-Dec-07 11:04 289 2 gusting 4 16.1
2019-Dec-07 10:59 280 2 gusting 4 16.1
2019-Dec-07 10:54 280 1 gusting 4 16.1
2019-Dec-07 10:49 273 2 gusting 6 16.1
2019-Dec-07 10:44 266 4 gusting 8 16.1
2019-Dec-07 10:39 264 5 gusting 8 16.1
2019-Dec-07 10:34 260 4 gusting 8 16.1
2019-Dec-07 10:29 256 3 gusting 6 16.1
2019-Dec-07 10:24 282 5 gusting 9 16.1
2019-Dec-07 10:19 272 6 gusting 9 16.1
2019-Dec-07 10:14 243 4 gusting 9 16.1
2019-Dec-07 10:09 240 4 gusting 8 16.1
2019-Dec-07 10:04 247 3 gusting 8 16.1
2019-Dec-07 09:59 245 2 gusting 8 16.7
2019-Dec-07 09:54 232 0 gusting 3 16.7
2019-Dec-07 09:49 119 0 gusting 3 16.7
2019-Dec-07 09:44 118 2 gusting 4 16.7
2019-Dec-07 09:39 109 2 gusting 5 16.7
2019-Dec-07 09:34 092 1 gusting 5 16.7
2019-Dec-07 09:29 124 0 gusting 3 16.7
2019-Dec-07 09:24 226 0 gusting 2 16.1
2019-Dec-07 09:19 117 1 gusting 3 16.1
2019-Dec-07 09:14 087 1 gusting 3 16.1
2019-Dec-07 09:09 241 1 gusting 4 16.7
2019-Dec-07 09:04 234 1 gusting 4 16.1
2019-Dec-07 08:59 186 1 gusting 3 16.1
2019-Dec-07 08:54 172 1 gusting 3 15.6
2019-Dec-07 08:49 155 1 gusting 3 15.6
2019-Dec-07 08:44 117 0 gusting 3 15.6
2019-Dec-07 08:39 090 0 gusting 2 15.6
2019-Dec-07 08:34 078 0 gusting 3 15.0
2019-Dec-07 08:29 070 1 gusting 3 15.0
2019-Dec-07 08:24 076 1 gusting 3 14.4
2019-Dec-07 08:19 090 0 gusting 2 14.4
2019-Dec-07 08:14 070 0 gusting 2 14.4
2019-Dec-07 08:09 049 13.9
2019-Dec-07 08:04 147 13.9
2019-Dec-07 07:59 171 13.9
2019-Dec-07 07:54 178 0 gusting 1 13.3
2019-Dec-07 07:49 177 0 gusting 3 13.3
2019-Dec-07 07:44 186 0 gusting 3 12.8
2019-Dec-07 07:39 237 12.8
2019-Dec-07 07:34 247 12.8
2019-Dec-07 07:29 235 12.2
2019-Dec-07 07:24 12.2
2019-Dec-07 07:19 11.7
2019-Dec-07 07:14 11.7
2019-Dec-07 07:09 11.7
2019-Dec-07 07:04 11.7
2019-Dec-07 06:59 270 11.7
2019-Dec-07 06:54 270 11.1
2019-Dec-07 06:49 270 11.1
2019-Dec-07 06:44 11.1
2019-Dec-07 06:39 225 10.6
2019-Dec-07 06:34 234 10.6
2019-Dec-07 06:29 258 0 gusting 1 10.6
2019-Dec-07 06:24 270 10.6
2019-Dec-07 06:19 10.6
2019-Dec-07 06:14 10.6
2019-Dec-07 06:09 10.6
2019-Dec-07 06:04 238 10.6
2019-Dec-07 05:59 253 0 gusting 1 10.6
2019-Dec-07 05:54 264 10.6
2019-Dec-07 05:49 10.6
2019-Dec-07 05:44 11.1
2019-Dec-07 05:39 11.1
2019-Dec-07 05:34 11.1
2019-Dec-07 05:29 11.1
2019-Dec-07 05:24 11.1
2019-Dec-07 05:19 11.1
2019-Dec-07 05:14 11.1
2019-Dec-07 05:09 11.7
2019-Dec-07 05:04 11.7
2019-Dec-07 04:59 11.7
2019-Dec-07 04:54 11.7
2019-Dec-07 04:49 11.7
2019-Dec-07 04:44 11.7
2019-Dec-07 04:39 11.7
2019-Dec-07 04:34 11.7
2019-Dec-07 04:29 11.7
2019-Dec-07 04:24 11.7
2019-Dec-07 04:19 11.7
2019-Dec-07 04:14 11.7
2019-Dec-07 04:09 11.7
2019-Dec-07 04:04 11.7
2019-Dec-07 03:59 11.7
2019-Dec-07 03:54 11.7
2019-Dec-07 03:49 181 11.7
2019-Dec-07 03:44 181 11.7
2019-Dec-07 03:39 250 11.7
2019-Dec-07 03:34 270 11.7
2019-Dec-07 03:29 270 11.7
2019-Dec-07 03:24 257 11.7
2019-Dec-07 03:19 266 11.7
2019-Dec-07 03:14 266 0 gusting 1 11.7
2019-Dec-07 03:09 248 0 gusting 1 11.7
2019-Dec-07 03:04 231 11.7
2019-Dec-07 02:59 225 11.7
2019-Dec-07 02:54 11.7
2019-Dec-07 02:49 11.7
2019-Dec-07 02:44 225 11.7
2019-Dec-07 02:39 245 11.7
2019-Dec-07 02:34 248 11.7
2019-Dec-07 02:29 270 11.7
2019-Dec-07 02:24 11.7
2019-Dec-07 02:19 11.7
2019-Dec-07 02:14 259 11.7
2019-Dec-07 02:09 259 11.1
2019-Dec-07 02:04 11.1
2019-Dec-07 01:59 11.1
2019-Dec-07 01:54 236 11.7
2019-Dec-07 01:49 236 11.7
2019-Dec-07 01:44 11.7
2019-Dec-07 01:39 225 11.7
2019-Dec-07 01:34 225 0 gusting 1 11.1
2019-Dec-07 01:29 225 11.1
2019-Dec-07 01:24 11.1
2019-Dec-07 01:19 11.1
2019-Dec-07 01:14 11.1
2019-Dec-07 01:09 11.1
2019-Dec-07 01:04 11.1
2019-Dec-07 00:59 229 11.1
2019-Dec-07 00:54 227 0 gusting 1 11.1
2019-Dec-07 00:49 225 0 gusting 1 11.1
2019-Dec-07 00:44 229 0 gusting 1 11.1
2019-Dec-07 00:39 254 11.1
2019-Dec-07 00:34 250 0 gusting 1 11.1
2019-Dec-07 00:29 246 11.1
2019-Dec-07 00:24 270 11.1
2019-Dec-07 00:19 11.1
2019-Dec-07 00:14 11.1
2019-Dec-07 00:09 246 11.1
2019-Dec-07 00:04 240 0 gusting 1 11.1
2019-Dec-06 23:59 233 11.1
2019-Dec-06 23:54 250 11.1
2019-Dec-06 23:49 229 11.1
2019-Dec-06 23:44 240 0 gusting 2 11.1
2019-Dec-06 23:39 247 0 gusting 2 11.1
2019-Dec-06 23:34 233 0 gusting 2 11.1
2019-Dec-06 23:29 231 1 gusting 2 11.1
2019-Dec-06 23:24 210 0 gusting 2 11.1
2019-Dec-06 23:19 222 0 gusting 2 11.1
2019-Dec-06 23:14 267 0 gusting 1 10.6
2019-Dec-06 23:09 249 0 gusting 1 10.6
2019-Dec-06 23:04 236 0 gusting 1 10.6
2019-Dec-06 22:59 230 0 gusting 1 10.6
2019-Dec-06 22:54 235 10.6
2019-Dec-06 22:49 270 10.6
2019-Dec-06 22:44 225 11.1
2019-Dec-06 22:39 240 0 gusting 1 11.1
2019-Dec-06 22:34 240 0 gusting 1 11.1
2019-Dec-06 22:29 247 0 gusting 2 11.1
2019-Dec-06 22:24 253 0 gusting 2 11.7
2019-Dec-06 22:19 237 11.7
2019-Dec-06 22:14 263 12.2
2019-Dec-06 22:09 257 12.2
2019-Dec-06 22:04 235 0 gusting 1 12.2
2019-Dec-06 21:59 248 0 gusting 1 12.2
2019-Dec-06 21:54 288 1 gusting 3 12.2
2019-Dec-06 21:49 300 1 gusting 3 12.2
2019-Dec-06 21:44 311 0 gusting 3 12.2
2019-Dec-06 21:39 273 0 gusting 3 12.2
2019-Dec-06 21:34 265 0 gusting 3 12.2
2019-Dec-06 21:29 229 0 gusting 1 12.2
2019-Dec-06 21:24 225 0 gusting 1 12.2
2019-Dec-06 21:19 252 0 gusting 1 12.2
2019-Dec-06 21:14 255 0 gusting 2 12.8
2019-Dec-06 21:09 355 0 gusting 3 12.8
2019-Dec-06 21:04 349 0 gusting 3 12.8